Theta_e
319 322 323 325 324 325 326 327 327 328 328 328 330 328 329 327 327 319 310 316 317 326 325 311 309 308 307 304 306 303 295 292 294 293 296 298 298 300 306 310 311 313 314 319 327
319 321 322 323 323 325 325 326 326 326 327 328 329 328 328 327 317 312 318 325 327 326 313 305 303 304 301 302 302 298 294 296 298 296 296 298 299 299 305 307 308 311 318 323 328
318 320 322 322 323 323 323 325 326 325 326 326 327 327 326 320 309 311 324 325 329 323 314 309 308 305 300 302 300 298 296 299 299 298 298 298 297 301 303 303 307 309 315 321 324
318 319 321 321 322 322 320 322 319 322 326 325 326 326 323 316 299 311 326 327 329 315 312 308 307 301 301 297 300 296 297 297 299 298 297 296 298 299 302 303 306 312 320 321 321
318 319 319 320 320 320 321 320 318 318 324 325 325 324 316 305 306 313 322 327 319 311 308 306 305 303 299 301 298 297 298 298 298 298 297 297 297 298 300 301 309 317 320 320 321
317 318 318 319 319 319 319 320 319 317 322 325 325 321 311 301 314 318 318 314 310 308 307 309 307 309 304 301 299 299 301 299 300 297 298 296 294 297 298 310 312 317 318 320 321
315 316 318 318 318 319 319 320 320 319 318 324 325 318 309 307 316 316 312 309 310 310 307 310 310 309 305 300 301 302 300 303 303 297 297 296 293 294 298 310 311 314 317 319 320
314 315 315 317 318 319 319 318 318 318 320 324 324 314 305 315 313 312 312 311 313 312 310 310 311 305 303 303 301 300 299 296 302 297 296 296 291 296 301 309 309 312 314 318 319
313 313 314 314 317 317 318 318 318 318 322 324 315 310 301 316 309 311 311 308 311 312 313 314 311 304 305 299 297 295 293 292 296 299 295 294 292 295 300 306 306 310 312 315 318
312 311 312 313 315 316 317 317 318 317 320 319 314 303 307 304 308 310 312 312 309 309 308 307 304 300 300 297 290 292 292 293 294 297 292 291 291 294 295 305 304 307 310 313 315
311 311 310 311 314 316 314 311 306 305 310 304 303 301 304 309 311 308 311 309 308 305 298 302 298 294 299 300 300 297 295 293 292 294 295 291 291 295 294 298 302 304 308 311 314
310 310 310 310 314 315 313 304 306 309 300 306 305 305 307 309 301 305 311 302 301 296 299 296 294 300 301 302 299 297 296 295 295 294 293 295 296 295 291 292 297 303 305 308 310
310 310 309 309 312 310 307 306 315 313 300 301 303 304 304 307 301 301 306 303 298 296 297 295 297 302 300 299 297 295 295 294 293 291 291 288 289 293 291 291 291 296 303 306 309
309 309 308 309 305 305 303 311 316 310 288 292 297 302 305 306 300 307 308 303 299 295 295 296 300 298 298 296 299 291 295 293 291 290 287 290 281 292 293 291 289 293 292 299 304
308 307 307 310 302 300 304 313 312 307 278 291 295 307 306 299 301 302 306 301 296 296 296 292 296 296 295 297 299 294 295 292 291 288 288 286 284 289 290 288 290 291 292 295 297
307 306 306 305 305 306 307 313 307 286 277 286 294 294 296 299 298 300 299 302 301 297 294 293 297 299 297 297 299 296 293 291 290 288 281 287 286 286 289 290 291 293 295 295 295
306 305 304 306 299 307 309 305 286 280 286 282 287 294 294 293 294 295 293 292 291 287 288 291 293 294 298 292 294 294 291 282 280 280 280 283 283 290 293 289 292 295 294 296 296
305 304 303 303 306 305 302 290 279 283 284 289 291 292 289 293 293 293 292 290 293 289 289 286 284 291 296 292 289 291 291 283 278 276 278 280 281 287 293 300 299 292 292 292 293
302 299 299 301 304 305 291 283 283 286 287 289 290 287 287 289 292 291 290 291 291 289 286 287 284 292 295 295 294 288 287 289 282 272 275 279 283 288 288 288 288 288 290 292 292
293 294 295 304 305 298 285 282 285 290 291 292 285 288 284 285 288 289 289 291 289 290 291 288 283 289 292 295 294 292 292 284 284 278 274 278 278 285 285 287 288 288 290 292 292
294 290 297 305 303 287 281 285 286 292 295 291 288 285 286 285 285 288 288 288 291 289 289 286 285 284 290 289 288 289 288 288 286 281 277 273 280 284 290 291 289 291 291 292 293
290 284 297 301 286 285 284 287 290 291 295 288 288 287 288 287 285 286 287 286 293 291 286 288 284 282 283 287 294 290 289 288 282 279 278 278 279 286 285 287 288 289 289 292 293
286 286 296 299 282 283 289 289 291 291 289 288 286 288 291 287 284 285 286 291 292 293 289 288 282 275 281 285 285 287 289 290 286 284 281 277 285 285 285 287 288 289 290 292 293
286 281 288 291 288 287 285 286 287 294 288 287 287 291 288 287 286 284 285 287 293 293 295 292 283 280 279 280 285 282 287 289 289 283 283 283 287 290 289 288 288 289 290 291 293
284 282 283 282 283 287 288 287 286 285 289 290 287 289 286 283 283 283 285 286 290 294 292 288 280 282 283 284 284 284 285 287 286 288 285 288 287 289 291 291 288 289 289 291 292
284 283 285 283 285 286 287 285 287 286 285 284 286 289 288 285 286 282 284 284 285 286 286 286 279 283 280 283 285 282 285 287 287 288 289 288 286 288 287 288 289 291 291 291 292
289 289 283 283 284 285 285 286 287 289 288 288 290 288 285 287 289 291 293 291 290 290 289 285 282 276 271 282 284 277 283 285 288 288 288 283 290 287 287 289 289 290 291 292 293
Wind_Speed
19 18 21 22 19 17 17 17 15 15 17 16 16 16 15 13 10 4 7 8 7 5 1 2 3 4 3 5 2 2 4 2 4 5 3 4 4 1 3 6 0 1 4 1 15
17 17 22 20 19 18 18 18 19 16 17 17 17 16 17 15 4 9 5 12 9 5 3 7 8 6 3 4 3 4 3 6 4 3 3 6 4 9 5 4 2 2 3 10 15
15 17 21 21 20 19 16 18 18 18 19 19 18 18 18 13 0 7 16 12 14 8 3 2 5 4 4 3 4 4 4 1 4 2 1 4 4 5 9 3 7 9 10 16 14
13 14 21 20 20 19 12 12 7 11 20 20 20 21 21 12 10 4 16 21 14 8 4 3 3 6 5 6 3 6 5 2 3 5 1 2 5 6 7 7 1 8 17 18 17
12 12 17 19 20 18 18 16 11 1 18 20 22 25 11 6 6 3 7 18 9 8 8 6 6 5 6 6 5 4 5 4 1 4 3 3 5 4 7 1 4 11 15 19 18
13 13 15 18 18 19 19 20 21 10 14 22 25 25 7 15 6 5 9 8 5 7 8 6 6 4 4 7 6 7 7 3 5 6 2 2 1 1 2 6 7 14 15 15 19
14 11 15 15 17 16 17 20 20 18 15 23 26 14 8 12 6 10 10 3 3 5 7 4 2 2 5 6 2 2 6 6 2 4 5 2 3 8 1 4 8 9 10 10 12
14 11 11 14 16 16 18 19 16 16 17 25 27 6 4 4 10 12 10 4 4 5 5 6 7 5 3 2 4 5 4 7 8 4 3 1 9 6 6 8 8 9 9 13 12
13 11 10 9 13 14 16 16 15 19 21 26 15 11 6 11 10 7 7 9 5 3 4 4 6 4 1 7 4 7 5 4 3 4 1 4 6 5 5 8 8 8 10 12 11
13 10 10 9 13 15 15 17 17 13 21 18 6 8 11 11 9 9 6 9 5 9 5 4 4 3 3 8 15 6 6 4 7 1 3 5 9 10 4 7 8 8 10 12 13
13 11 8 9 13 13 11 5 9 13 23 8 19 4 14 13 10 5 12 7 4 8 7 2 5 11 16 11 2 10 3 9 4 4 2 6 11 13 5 5 7 8 10 11 14
13 11 8 7 12 11 10 11 24 4 26 9 18 8 8 19 11 15 14 9 9 8 10 4 10 6 10 9 6 11 8 4 3 3 4 12 22 14 6 7 9 11 9 12 6
14 12 8 5 9 5 8 18 6 11 7 11 12 11 19 14 11 17 14 10 12 6 11 9 3 11 12 12 12 5 12 8 3 3 3 3 15 18 7 6 5 7 7 7 14
16 14 9 5 5 4 5 7 7 2 5 9 11 8 12 13 7 14 12 7 4 10 6 2 8 17 14 14 15 7 4 6 7 5 5 4 8 12 9 13 8 13 10 13 14
17 13 10 14 4 6 4 10 10 4 10 14 7 12 13 17 21 12 4 4 12 10 6 6 10 15 14 13 15 4 12 6 5 6 2 5 5 7 7 11 11 14 14 15 16
16 13 13 6 3 4 11 13 6 7 7 10 10 13 17 18 9 10 6 7 3 7 6 3 1 8 7 6 13 15 14 12 6 3 7 8 11 8 10 14 8 9 16 17 16
14 13 7 1 5 6 3 8 7 6 6 8 11 19 23 17 11 16 11 13 8 11 10 4 4 1 5 11 9 4 13 4 2 4 6 3 8 19 9 7 9 12 14 17 16
11 10 5 5 3 5 3 3 5 6 6 5 18 23 9 21 14 14 17 12 4 7 6 8 8 9 4 6 8 9 1 6 8 6 2 1 14 8 16 22 15 11 8 5 9
7 2 2 4 6 3 2 6 5 10 9 16 21 19 11 6 9 14 15 17 7 7 9 11 4 1 2 6 12 4 4 1 4 2 2 7 9 10 11 10 7 11 7 12 10
4 5 3 8 9 4 1 5 4 7 14 21 20 11 17 13 16 18 18 15 9 6 4 8 7 3 6 7 4 4 6 3 2 5 5 5 6 12 3 8 10 10 14 12 8
3 4 1 6 7 3 3 4 3 8 25 23 10 10 12 20 9 22 23 3 8 9 5 6 6 2 7 8 11 6 5 2 2 4 4 2 8 8 13 14 9 13 9 8 7
3 4 1 4 4 2 2 6 8 19 18 3 6 6 22 20 13 8 20 7 14 12 10 6 7 5 3 4 8 5 9 9 5 6 2 3 12 3 7 6 3 8 8 5 5
3 3 2 3 7 3 4 6 13 23 13 8 7 5 20 15 11 6 8 5 11 21 17 9 3 6 2 4 2 8 7 10 1 2 7 4 13 2 3 5 6 7 8 7 5
3 3 1 0 1 7 5 6 10 21 5 5 9 22 16 13 5 10 9 4 14 13 7 7 5 7 11 6 10 9 15 15 15 4 8 14 23 13 10 6 6 6 8 8 5
2 1 1 4 4 5 7 5 18 9 2 11 8 22 12 9 6 7 6 6 6 12 6 4 5 4 3 6 5 6 11 19 20 27 11 29 21 18 17 12 4 3 3 5 6
3 1 0 2 2 11 10 7 23 11 9 7 17 26 12 16 11 15 12 6 8 5 4 1 2 5 2 4 6 4 13 20 25 22 23 20 27 3 4 9 8 5 5 8 8
1 1 1 1 2 4 8 4 21 9 4 6 22 15 8 10 11 15 14 11 18 17 16 9 7 4 5 2 6 7 17 21 20 21 24 17 35 6 5 11 9 6 8 10 11
Wind_Direction
246 243 223 214 212 207 216 209 226 205 201 206 199 185 155 143 138 139 214 207 189 190 249 169 164 208 107 107 111 158 76 188 221 169 207 145 144 120 124 114 143 120 162 223 130
247 240 219 216 210 212 215 216 214 223 205 204 204 181 146 138 159 211 231 200 190 201 166 185 179 164 116 134 115 102 135 204 212 208 206 180 168 158 136 125 229 158 38 139 142
246 245 215 211 206 210 215 220 219 217 212 203 203 164 146 121 195 237 204 224 183 187 227 223 177 164 142 186 146 158 166 269 358 265 269 177 174 175 123 209 203 192 161 157 159
244 242 209 206 205 209 197 189 197 234 212 202 201 161 145 151 212 206 192 197 187 169 165 169 182 140 143 139 160 130 80 58 331 341 9 202 134 184 189 203 202 177 161 160 166
234 230 212 201 199 203 206 203 199 218 227 199 193 152 147 198 220 268 234 186 160 155 175 179 175 151 164 156 126 137 163 123 16 4 260 136 230 210 223 283 95 130 157 171 177
222 225 210 204 203 204 206 209 207 210 255 199 178 150 162 204 147 126 105 121 168 158 171 178 197 194 128 174 197 168 149 148 57 352 292 186 267 267 212 140 127 150 175 177 182
213 215 202 198 209 213 207 208 212 204 267 194 172 159 203 199 147 127 112 123 164 159 143 164 179 212 134 117 183 187 129 57 274 31 331 272 271 231 118 145 155 167 175 176 181
195 196 195 202 208 212 208 204 209 225 250 185 166 161 183 185 139 118 118 77 66 76 109 147 110 98 72 125 49 103 74 176 231 37 30 108 264 267 167 155 188 178 174 182 190
184 183 198 209 212 211 212 205 215 232 214 164 168 172 185 133 142 133 117 133 119 115 93 106 73 91 164 129 117 18 155 120 314 170 217 173 277 282 178 186 197 197 186 189 193
180 181 201 220 225 211 217 208 205 212 196 166 146 142 159 172 133 135 126 136 125 134 108 88 94 138 208 178 199 145 172 182 191 194 166 246 267 280 237 211 219 201 201 195 195
176 181 199 234 229 213 198 205 176 213 187 182 151 92 129 126 123 135 148 102 149 153 162 136 171 196 203 191 186 161 168 192 163 139 114 263 269 269 237 235 238 219 219 215 208
185 182 192 233 227 221 205 221 206 300 180 138 152 105 137 137 128 143 155 142 166 158 119 123 219 168 161 177 138 160 177 193 353 78 194 257 264 270 222 225 215 216 215 222 202
189 182 184 214 219 217 224 220 179 166 202 151 148 157 162 146 142 155 166 147 161 129 166 184 154 148 160 178 183 172 192 177 176 100 243 322 269 256 239 240 217 218 211 197 216
190 172 165 180 173 147 230 231 196 201 142 148 165 174 148 138 127 156 155 135 157 159 159 143 150 158 171 183 187 186 102 106 107 105 221 179 283 234 228 240 210 222 202 217 215
180 175 179 190 159 194 180 195 133 139 191 151 153 136 164 165 133 171 140 97 151 145 153 171 162 155 176 185 175 158 126 96 100 120 339 207 249 271 168 245 236 223 215 219 214
169 169 189 225 221 250 191 158 171 162 174 154 160 171 151 147 140 125 129 64 42 108 57 108 288 161 165 151 168 129 95 75 68 115 246 192 219 229 214 223 245 242 219 216 214
173 176 175 293 227 208 247 191 192 207 139 159 166 163 140 148 128 152 149 143 159 150 162 141 156 295 152 97 128 149 148 114 161 185 252 259 198 244 250 209 220 227 222 222 211
183 190 206 220 350 122 247 130 184 125 163 168 155 141 125 143 150 145 154 153 191 106 133 153 187 173 173 143 152 147 212 151 185 194 209 70 233 252 228 232 230 232 243 239 203
153 182 216 195 201 165 91 216 169 154 149 145 135 139 138 124 138 150 177 184 158 174 139 167 163 283 76 137 145 166 171 91 86 65 94 206 283 277 234 248 237 241 228 231 219
127 181 208 164 156 151 139 273 208 147 130 151 143 160 154 156 151 172 172 189 164 160 195 193 116 231 164 97 37 142 153 116 177 191 245 265 265 247 335 262 239 239 233 239 240
151 152 111 175 135 76 193 246 230 182 148 163 158 142 167 156 162 177 177 153 132 148 90 145 107 114 139 204 164 140 164 104 98 200 204 287 260 225 210 212 219 232 241 248 254
128 140 187 207 130 175 207 175 212 181 166 144 101 68 166 145 158 153 179 160 150 147 148 203 112 137 200 182 159 138 177 177 169 198 228 166 261 276 259 267 270 274 287 273 257
128 126 252 202 172 194 176 194 210 172 161 153 141 142 155 153 129 126 149 187 151 172 161 178 147 95 40 332 128 203 180 202 177 69 205 159 263 135 281 301 282 265 263 258 255
115 118 93 25 8 144 197 209 177 172 155 114 113 124 127 155 79 154 145 148 171 172 180 116 142 152 187 179 140 189 194 195 206 184 210 223 252 281 294 272 291 280 277 284 243
67 137 186 170 186 169 177 215 171 167 237 147 122 153 141 143 99 133 132 96 123 183 171 111 133 120 100 132 121 154 173 189 202 223 197 243 247 240 253 276 247 268 278 279 270
106 124 227 102 152 190 188 210 179 161 160 204 157 164 153 156 168 167 133 116 161 130 124 148 123 117 81 147 151 169 205 198 211 225 240 253 278 266 274 297 295 216 257 275 255
109 87 49 317 219 175 191 194 197 166 5 143 147 134 100 151 134 147 144 138 150 166 187 148 140 103 207 130 93 311 203 204 213 218 218 223 243 149 249 254 259 260 221 244 255